Wetbulb
54.38 54.42 54.18 54.44 54.66 54.60 54.81 54.71 54.78 54.98 55.40 55.55 55.67 55.60 55.74 56.18 56.44 55.90 55.35 55.45 55.59 55.92 56.09 56.53 57.54 58.26 48.68 40.56 40.52 47.30 58.98 55.56 47.13 46.56 43.48 42.23 40.50 39.55 38.57 39.03 40.31 38.95 39.03 40.13 40.45 40.24 39.66
54.23 54.19 54.18 54.51 54.67 54.67 54.77 54.57 54.88 55.26 55.28 55.52 55.59 55.49 55.54 55.89 55.93 55.58 55.29 55.29 55.15 55.18 55.53 56.19 56.85 54.82 42.45 37.12 45.68 46.50 46.47 45.97 44.91 43.54 42.46 42.37 40.31 40.81 38.62 38.61 37.40 39.19 39.72 37.95 39.37 38.21 38.05
53.71 54.10 54.14 54.23 54.59 54.68 54.65 54.55 54.67 55.24 55.34 55.46 55.43 55.17 54.91 55.27 55.38 55.20 55.10 55.06 54.46 55.01 55.61 56.54 56.65 51.68 42.16 40.11 45.84 44.51 47.35 44.40 44.72 44.28 42.13 42.79 41.78 39.09 37.69 37.21 41.13 39.98 36.04 37.71 37.01 36.30 33.90
53.43 53.81 54.10 53.94 54.14 55.01 54.85 54.44 54.28 54.55 55.02 55.08 55.26 54.92 54.54 54.37 54.45 54.66 54.73 54.76 55.05 55.90 55.44 55.72 56.31 45.22 39.18 47.88 46.01 46.34 45.36 45.10 46.22 44.94 43.98 43.73 42.93 39.11 36.63 37.70 36.99 33.44 32.46 27.32 33.87 34.55 34.54
53.55 53.65 53.78 53.84 53.89 54.69 54.83 54.50 54.16 54.24 54.49 54.91 54.98 54.65 54.39 54.07 53.94 54.24 53.68 53.77 54.46 55.53 55.48 54.73 47.76 43.13 38.05 50.31 44.42 45.74 44.81 44.41 44.88 44.36 44.11 45.27 41.10 36.30 36.11 30.70 26.67 28.19 22.21 27.06 28.51 34.26 31.25
53.21 53.29 53.35 53.34 53.65 53.98 54.22 54.12 54.05 54.20 54.40 54.63 54.54 54.53 54.21 54.14 54.15 53.98 53.37 53.18 53.50 52.53 52.35 50.93 47.78 40.93 42.30 40.32 43.63 44.96 45.40 46.01 43.67 42.47 39.32 37.63 33.90 31.44 31.72 28.56 19.03 23.15 23.36 24.02 24.03 28.51 29.67
52.49 52.79 52.87 53.03 53.15 53.46 53.81 53.89 53.56 53.87 54.06 54.18 54.26 54.32 53.96 53.90 54.40 54.27 51.54 50.00 46.15 41.47 43.05 40.12 40.10 40.38 41.36 43.31 45.30 41.89 44.07 43.33 41.45 38.25 31.21 34.46 29.98 26.63 28.40 30.04 30.40 28.91 26.75 24.30 27.49 31.57 29.36
51.69 52.09 52.22 52.43 52.55 52.76 53.05 53.21 53.03 53.53 53.77 53.71 53.27 53.40 53.65 53.38 53.72 53.22 50.19 46.55 45.02 43.88 37.82 44.06 43.79 43.21 45.00 43.78 39.70 40.58 43.66 39.19 37.01 31.65 33.67 29.44 26.93 31.48 33.44 32.60 30.00 28.82 26.09 24.48 27.37 31.34 30.10
51.28 51.30 51.69 51.88 52.03 52.14 52.45 52.65 52.60 53.02 53.28 53.34 53.15 52.76 52.89 52.91 51.98 50.69 46.53 47.91 54.64 53.97 39.34 42.60 43.58 42.67 42.84 43.19 38.50 38.05 40.15 39.20 35.74 32.72 30.83 26.88 30.17 34.99 32.73 29.66 28.92 27.79 25.36 25.84 25.77 29.80 27.75
50.80 50.80 50.94 51.23 51.41 51.56 51.61 51.94 52.04 52.35 52.83 53.00 52.87 52.76 52.03 51.13 47.86 46.59 47.60 51.07 55.54 53.76 36.17 39.66 40.75 42.09 43.23 44.42 38.94 41.29 41.22 38.72 36.09 32.26 33.08 29.91 33.79 32.14 29.57 28.92 29.68 23.64 30.20 29.35 28.43 23.90 16.91
50.30 50.44 50.52 50.61 50.70 50.75 50.97 51.18 51.43 51.82 52.26 52.61 52.46 52.45 52.80 50.76 50.39 47.84 51.34 53.86 55.52 53.62 27.98 40.68 40.33 45.79 43.02 39.21 39.61 39.47 41.45 39.21 33.63 33.80 32.71 28.43 29.52 28.60 27.67 29.14 31.30 26.62 31.31 28.58 29.06 23.45 21.42
49.84 50.02 49.83 50.09 50.02 50.28 50.45 50.61 50.82 50.96 51.73 52.31 52.31 52.64 52.07 53.70 52.49 51.82 54.45 54.71 53.31 39.81 24.08 38.75 42.03 40.64 40.25 39.72 39.16 40.47 38.38 39.49 39.10 34.73 32.36 30.76 33.45 31.23 29.59 32.40 31.98 32.24 28.31 27.44 26.18 21.86 10.28
49.33 49.54 49.55 49.62 49.76 49.71 49.99 50.38 50.56 50.74 51.33 52.08 52.17 52.30 53.13 57.11 49.51 54.71 55.40 51.24 35.07 24.21 41.00 37.36 38.69 40.60 38.91 37.17 38.36 38.66 35.24 30.97 27.35 25.51 26.26 29.90 29.11 31.56 33.34 27.65 30.42 27.90 21.47 11.97 12.13 8.56 6.64
48.86 49.13 49.33 49.18 49.53 49.56 49.57 50.01 50.49 50.76 51.25 51.70 51.45 49.91 53.89 54.69 54.87 54.51 52.91 43.46 23.14 39.60 37.79 40.17 39.55 39.79 37.03 36.67 37.02 37.64 34.83 29.24 31.36 29.33 26.21 23.93 21.72 28.82 32.71 28.40 24.02 25.47 21.81 9.48 3.98 2.19 6.48
48.30 48.71 48.90 48.92 48.99 49.25 49.63 49.89 50.29 50.43 50.83 51.08 49.76 50.30 52.05 51.55 53.63 53.02 48.18 28.48 31.02 37.74 40.19 40.13 38.82 36.53 35.79 36.86 36.06 36.53 31.88 30.16 29.88 29.95 24.44 20.93 24.47 31.43 33.19 33.40 29.67 25.03 16.92 24.53 17.25 18.32 11.48
47.55 48.09 48.41 48.75 49.03 49.41 49.43 49.73 50.01 50.18 50.58 50.82 48.80 51.59 47.02 51.56 52.81 50.99 42.84 36.38 38.06 41.20 41.13 40.67 36.43 37.13 33.50 34.58 34.79 34.00 32.23 34.08 32.34 32.86 31.98 28.80 20.90 32.21 31.83 32.33 31.20 27.39 28.68 15.16 15.39 1.94 -0.49
47.17 47.33 47.85 48.24 49.11 49.20 49.11 49.35 49.68 49.88 50.20 50.20 47.92 47.30 49.26 51.89 52.32 46.75 34.75 34.86 39.49 41.84 42.10 39.03 38.17 37.15 36.22 34.36 34.39 33.54 33.02 34.02 33.86 33.51 32.28 29.05 24.73 26.00 32.13 25.60 22.80 22.08 21.13 20.97 19.66 16.38 1.88
47.14 46.92 47.14 47.80 48.22 48.86 48.80 49.08 49.38 49.47 49.77 48.19 47.96 42.52 50.49 51.49 44.80 42.98 34.03 40.80 42.28 39.79 42.11 40.46 40.15 38.33 36.07 36.15 34.94 34.61 33.03 33.38 35.41 33.68 28.99 29.85 24.65 19.62 25.99 30.67 32.03 27.83 24.23 23.43 12.95 14.17 15.76
47.09 47.01 46.70 47.14 48.08 48.57 48.39 48.50 48.82 49.20 49.76 45.21 45.84 44.26 50.54 50.68 30.88 32.62 37.78 40.85 41.96 39.90 40.16 39.63 38.23 38.47 37.67 35.19 30.71 35.24 34.66 35.45 35.48 33.57 27.59 27.60 22.75 17.52 20.76 23.85 27.74 24.60 27.90 26.78 23.39 19.23 5.03
47.35 47.19 46.57 46.65 47.32 48.45 48.18 48.42 48.50 48.80 49.32 45.46 46.64 34.53 43.59 44.93 44.88 39.38 36.87 37.15 37.45 41.49 40.30 40.98 38.82 38.40 35.75 34.75 36.11 33.14 34.99 34.96 35.89 34.49 35.67 31.89 24.57 21.80 15.01 19.14 24.77 21.57 25.20 25.87 19.59 12.56 7.52
47.56 47.38 47.21 46.80 47.21 48.03 47.97 47.93 48.05 48.34 48.68 47.43 45.66 40.83 44.12 30.54 36.59 40.18 40.31 40.08 36.74 35.85 39.96 39.67 36.76 36.98 35.80 31.06 34.20 32.75 35.66 33.48 34.84 36.15 31.94 28.46 22.25 24.80 27.71 29.87 29.84 23.64 23.04 24.75 16.96 13.54 13.05
47.59 47.28 47.23 46.85 47.01 47.76 47.76 47.63 47.46 47.85 48.54 48.02 43.61 42.59 42.38 40.74 43.09 41.03 38.15 36.58 37.92 39.02 37.79 36.63 35.11 39.12 36.36 32.11 34.11 30.02 33.66 32.84 32.37 30.58 29.49 29.97 22.80 25.56 24.13 29.39 23.41 24.64 24.59 25.67 24.43 18.71 15.32
48.04 47.24 47.00 46.73 46.52 46.65 47.35 47.38 47.09 47.69 48.76 47.76 46.37 46.84 46.01 40.32 39.43 38.21 36.62 41.03 41.14 40.07 40.67 41.10 39.04 36.77 34.99 36.17 35.90 34.73 34.53 34.87 34.11 30.98 27.92 27.82 25.20 23.58 21.26 24.99 21.81 18.07 24.21 24.31 24.00 23.34 15.34
48.33 47.46 46.75 46.27 45.62 46.01 46.72 47.15 46.85 47.28 47.12 44.64 46.61 46.57 44.15 34.72 39.24 40.59 43.60 43.15 41.04 40.38 38.41 39.58 38.58 35.53 37.48 40.34 38.28 36.18 36.25 35.95 34.73 33.78 33.95 28.09 26.15 25.32 21.69 23.02 6.90 25.00 31.53 28.52 20.94 26.29 24.89
48.37 47.89 46.45 45.87 45.32 45.48 46.59 47.03 46.89 46.99 47.86 45.09 46.49 45.86 44.70 37.61 41.67 41.67 41.88 40.76 39.43 38.76 38.27 38.50 39.67 39.38 39.22 34.89 30.98 29.68 29.42 31.28 34.04 34.81 32.96 32.59 27.30 21.73 14.92 18.36 23.40 28.63 29.49 25.41 21.69 20.15 28.23
48.20 48.05 46.71 45.96 45.51 45.61 46.35 46.77 46.65 46.85 47.53 46.21 45.39 47.65 46.29 38.91 36.37 44.64 40.14 40.18 34.35 32.74 34.99 37.44 40.13 39.53 35.86 32.64 28.63 20.02 22.67 29.70 27.23 31.01 35.73 33.73 30.45 22.18 21.22 16.73 10.87 24.84 29.84 31.51 29.04 13.90 29.85
47.80 47.99 47.22 45.95 45.44 45.53 45.77 46.60 46.56 46.68 47.08 44.09 43.96 47.01 45.10 39.36 41.36 42.10 37.69 36.52 40.39 37.69 34.08 36.24 35.38 33.27 35.73 29.30 26.47 24.53 26.92 33.22 24.47 25.84 24.56 24.38 24.10 19.75 20.53 14.74 21.68 32.80 31.16 32.09 18.74 20.29 30.30
47.78 47.94 47.53 46.13 45.26 45.08 45.51 46.12 46.42 46.45 46.76 44.58 43.73 45.95 44.10 37.89 40.23 43.81 43.94 38.74 38.68 37.48 33.07 36.05 33.33 33.23 29.60 25.39 27.08 28.00 27.06 28.99 27.04 31.36 29.16 24.15 20.76 19.59 21.85 17.18 14.31 31.97 30.35 24.09 26.38 29.92 31.21
47.51 47.79 47.63 46.77 45.35 44.75 44.97 45.81 46.33 46.33 46.64 46.53 42.96 46.52 46.98 38.38 40.78 43.83 42.73 41.68 40.96 40.16 39.32 37.53 35.77 35.23 33.61 29.90 28.85 29.29 28.35 27.92 27.54 24.31 34.10 26.19 28.22 25.27 26.59 25.81 32.49 31.97 31.56 32.94 32.57 30.61 31.59
MSLP
1022.79 1022.53 1022.29 1022.04 1021.80 1021.52 1021.28 1021.10 1020.89 1020.64 1020.39 1020.16 1019.94 1019.77 1019.55 1019.34 1019.18 1018.89 1018.44 1018.10 1017.97 1017.67 1017.08 1016.70 1016.21 1015.46 1015.75 1016.20 1017.23 1016.52 1015.96 1015.36 1014.73 1014.27 1014.12 1014.04 1014.09 1014.26 1014.43 1014.44 1014.39 1014.84 1015.38 1015.85 1016.61 1017.28 1018.51
1023.09 1022.79 1022.52 1022.28 1022.07 1021.80 1021.50 1021.26 1021.02 1020.81 1020.58 1020.37 1020.14 1019.90 1019.71 1019.55 1019.28 1018.99 1018.65 1018.26 1017.99 1017.70 1017.33 1017.04 1016.87 1016.31 1016.59 1016.80 1017.29 1016.76 1016.25 1015.98 1015.62 1015.35 1015.43 1015.37 1015.89 1015.03 1015.32 1015.45 1015.46 1015.72 1016.00 1016.68 1017.14 1018.39 1019.50
1023.45 1023.15 1022.88 1022.64 1022.43 1022.16 1021.89 1021.62 1021.31 1021.03 1020.78 1020.56 1020.35 1020.15 1019.93 1019.65 1019.38 1019.17 1018.72 1018.34 1018.18 1017.93 1017.66 1017.37 1017.05 1017.12 1016.98 1018.38 1017.54 1016.85 1016.26 1016.32 1016.32 1016.12 1016.51 1016.75 1016.58 1016.94 1016.98 1016.52 1016.31 1016.54 1017.37 1017.67 1018.82 1019.42 1020.66
1023.82 1023.52 1023.22 1022.98 1022.73 1022.40 1022.10 1021.82 1021.54 1021.27 1021.01 1020.74 1020.50 1020.22 1019.95 1019.73 1019.52 1019.19 1019.17 1018.84 1018.47 1017.97 1017.78 1017.55 1017.62 1017.50 1018.14 1018.38 1017.70 1017.20 1016.72 1016.72 1016.95 1016.91 1017.24 1017.63 1017.66 1017.69 1018.16 1017.55 1017.64 1018.87 1019.57 1021.01 1021.57 1021.55 1022.12
1024.14 1023.84 1023.52 1023.24 1022.95 1022.64 1022.30 1022.02 1021.78 1021.50 1021.23 1020.94 1020.65 1020.37 1020.12 1019.91 1019.61 1019.64 1019.32 1019.03 1018.66 1018.20 1017.84 1017.47 1017.61 1017.77 1018.57 1018.43 1018.04 1017.75 1017.26 1017.06 1017.48 1017.83 1018.27 1018.41 1019.05 1020.25 1020.09 1020.20 1021.29 1022.63 1023.11 1022.91 1022.94 1023.16 1023.87
1024.51 1024.16 1023.85 1023.56 1023.25 1022.95 1022.62 1022.32 1022.05 1021.78 1021.44 1021.12 1020.76 1020.46 1020.11 1019.95 1019.73 1019.70 1019.30 1019.00 1018.44 1018.05 1017.37 1017.22 1017.70 1018.48 1019.11 1019.61 1019.06 1018.65 1017.91 1017.14 1018.05 1018.72 1019.44 1020.43 1021.06 1022.05 1022.24 1022.94 1024.82 1025.19 1025.12 1024.78 1024.97 1024.80 1024.70
1024.91 1024.52 1024.22 1023.90 1023.54 1023.23 1022.91 1022.61 1022.30 1021.98 1021.63 1021.30 1020.97 1020.69 1020.36 1019.90 1019.69 1019.83 1019.35 1018.81 1019.26 1019.09 1018.78 1019.01 1019.61 1019.77 1019.98 1019.46 1019.13 1019.20 1018.57 1018.28 1018.76 1019.82 1021.42 1022.56 1022.83 1023.18 1024.58 1025.17 1025.67 1025.79 1025.99 1026.07 1025.83 1025.20 1025.37
1025.32 1024.92 1024.54 1024.21 1023.82 1023.46 1023.13 1022.81 1022.49 1022.13 1021.76 1021.46 1021.11 1020.84 1020.66 1020.39 1019.96 1019.70 1019.63 1019.67 1018.97 1019.00 1019.92 1019.72 1019.83 1019.95 1019.99 1020.09 1020.03 1020.06 1019.44 1019.67 1020.53 1022.11 1022.49 1023.64 1024.30 1025.23 1025.55 1025.93 1026.05 1026.12 1026.57 1026.61 1026.02 1025.49 1025.59
1025.68 1025.26 1024.84 1024.48 1024.09 1023.72 1023.35 1022.98 1022.64 1022.27 1021.87 1021.60 1021.27 1020.89 1020.69 1020.44 1020.20 1019.92 1019.71 1019.44 1018.92 1018.91 1019.70 1020.08 1019.98 1019.97 1020.11 1020.32 1020.88 1020.96 1020.77 1020.66 1021.45 1022.68 1023.96 1024.90 1026.02 1025.97 1026.20 1026.52 1026.60 1026.60 1027.02 1026.59 1026.32 1025.32 1025.91
1026.07 1025.66 1025.19 1024.80 1024.40 1023.96 1023.59 1023.22 1022.85 1022.44 1021.98 1021.67 1021.37 1021.05 1020.74 1020.44 1020.50 1020.03 1019.81 1019.08 1019.23 1019.52 1019.99 1020.29 1020.04 1020.24 1020.18 1020.16 1021.09 1021.21 1021.11 1021.47 1022.19 1023.19 1023.89 1025.55 1026.24 1026.58 1026.80 1027.02 1027.11 1026.99 1026.95 1026.71 1025.72 1026.27 1027.84
1026.34 1025.98 1025.55 1025.14 1024.78 1024.33 1023.87 1023.46 1023.06 1022.67 1022.17 1021.71 1021.38 1021.09 1020.84 1020.88 1020.89 1020.19 1019.82 1019.38 1019.57 1020.01 1020.53 1020.46 1020.42 1020.36 1020.56 1021.13 1021.59 1021.63 1021.36 1021.66 1022.78 1023.51 1024.26 1026.02 1026.72 1026.98 1026.97 1027.55 1027.56 1028.06 1027.14 1027.06 1027.19 1028.14 1029.29
1026.67 1026.24 1025.85 1025.42 1024.98 1024.51 1024.04 1023.57 1023.12 1022.71 1022.26 1021.81 1021.37 1021.15 1021.00 1020.50 1020.69 1020.32 1019.75 1019.86 1020.28 1020.84 1020.59 1020.44 1020.31 1020.43 1020.72 1021.29 1021.57 1021.53 1022.30 1022.33 1022.86 1023.97 1025.08 1026.11 1026.73 1027.20 1027.54 1027.70 1028.00 1028.17 1027.89 1027.69 1028.51 1029.58 1031.42
1027.05 1026.56 1026.14 1025.73 1025.24 1024.72 1024.25 1023.74 1023.25 1022.74 1022.31 1021.95 1021.57 1021.26 1020.92 1020.42 1021.02 1020.36 1020.44 1020.80 1021.43 1021.33 1020.53 1020.55 1020.34 1020.50 1020.83 1021.55 1021.97 1022.30 1023.29 1024.36 1025.21 1025.51 1025.97 1026.75 1027.13 1027.29 1027.49 1027.87 1028.16 1028.58 1028.84 1030.07 1031.01 1031.95 1033.21
1027.38 1026.91 1026.41 1026.03 1025.54 1024.96 1024.43 1023.93 1023.37 1022.82 1022.36 1021.98 1021.73 1021.66 1021.06 1021.04 1020.93 1020.84 1021.09 1021.65 1021.48 1020.66 1020.40 1020.32 1020.30 1020.70 1021.13 1021.82 1022.42 1022.83 1023.76 1025.16 1026.11 1026.56 1026.90 1027.26 1027.40 1027.22 1027.45 1028.08 1028.77 1029.26 1030.37 1032.10 1033.54 1034.07 1034.25
1027.58 1027.24 1026.74 1026.25 1025.73 1025.17 1024.57 1024.03 1023.45 1022.91 1022.43 1022.02 1021.73 1021.34 1021.23 1021.33 1021.07 1021.19 1021.77 1022.43 1021.69 1020.77 1020.28 1020.22 1020.42 1020.63 1021.34 1022.19 1022.72 1022.93 1024.51 1025.72 1026.83 1027.23 1027.83 1027.91 1027.43 1027.32 1027.47 1027.77 1028.68 1029.50 1030.61 1031.73 1033.22 1034.15 1035.03
1027.79 1027.47 1026.99 1026.48 1025.92 1025.32 1024.72 1024.10 1023.49 1023.00 1022.55 1022.16 1021.88 1021.46 1021.37 1021.07 1021.03 1021.53 1022.17 1022.13 1021.56 1021.03 1020.65 1020.43 1020.58 1021.04 1021.56 1022.28 1022.97 1023.57 1024.70 1026.18 1026.96 1027.51 1027.95 1028.25 1028.15 1027.18 1027.61 1027.92 1028.66 1029.44 1030.46 1031.93 1033.60 1035.31 1036.35
1028.07 1027.68 1027.21 1026.73 1026.15 1025.50 1024.87 1024.25 1023.58 1023.04 1022.57 1022.21 1022.18 1021.80 1021.22 1020.91 1021.15 1022.06 1022.62 1022.11 1021.68 1021.47 1021.16 1021.31 1021.19 1021.44 1022.00 1022.76 1023.35 1024.09 1025.21 1026.52 1027.15 1027.70 1028.12 1028.53 1029.02 1028.25 1027.80 1028.35 1028.94 1029.53 1030.47 1031.80 1033.45 1035.30 1036.84
1028.38 1027.95 1027.42 1026.90 1026.37 1025.72 1025.04 1024.39 1023.80 1023.14 1022.36 1022.06 1022.11 1021.75 1021.14 1021.13 1021.92 1022.06 1022.52 1021.91 1021.62 1021.82 1021.71 1021.73 1021.86 1022.14 1022.69 1023.14 1023.68 1024.36 1025.51 1026.61 1027.62 1028.19 1028.67 1029.23 1029.65 1029.58 1028.86 1028.72 1028.85 1029.39 1030.22 1031.21 1033.29 1034.77 1035.87
1028.57 1028.18 1027.65 1027.09 1026.57 1025.93 1025.26 1024.58 1024.05 1023.54 1023.07 1023.07 1022.56 1021.74 1021.19 1021.23 1022.58 1023.15 1022.57 1022.20 1021.81 1021.94 1021.95 1022.20 1022.49 1022.92 1023.28 1023.66 1024.28 1024.73 1025.77 1027.01 1027.72 1028.36 1029.28 1029.95 1030.11 1030.23 1029.68 1029.74 1029.34 1029.57 1029.60 1030.50 1032.13 1033.81 1035.37
1028.74 1028.34 1027.85 1027.32 1026.76 1026.07 1025.43 1024.73 1024.19 1023.70 1023.28 1023.29 1022.64 1022.42 1022.02 1021.94 1022.15 1022.50 1022.54 1022.47 1022.45 1022.33 1022.46 1022.63 1022.98 1023.32 1023.65 1023.96 1024.40 1025.00 1025.78 1026.97 1027.57 1028.45 1029.39 1029.98 1030.48 1030.58 1030.48 1029.72 1029.35 1029.22 1029.18 1030.03 1031.67 1033.71 1034.49
1028.89 1028.50 1028.04 1027.51 1026.92 1026.22 1025.56 1024.84 1024.21 1023.50 1023.05 1023.04 1022.37 1022.22 1021.92 1023.10 1022.22 1022.10 1022.06 1022.11 1022.44 1022.72 1022.97 1023.06 1023.44 1023.62 1023.84 1024.25 1024.51 1025.10 1025.54 1026.81 1027.69 1028.69 1029.44 1030.15 1030.56 1030.21 1029.78 1029.07 1028.87 1028.64 1028.76 1029.43 1030.94 1032.26 1033.56
1028.98 1028.61 1028.19 1027.72 1027.13 1026.45 1025.73 1024.98 1024.29 1023.43 1022.56 1022.62 1022.46 1022.27 1022.03 1022.23 1021.60 1021.81 1022.12 1022.06 1022.17 1022.41 1022.94 1023.26 1023.57 1023.59 1024.11 1024.76 1025.10 1025.53 1026.14 1026.67 1027.46 1028.96 1029.38 1029.72 1030.10 1029.88 1029.45 1028.47 1028.23 1028.12 1027.87 1028.38 1029.40 1030.77 1031.64
1029.02 1028.72 1028.35 1027.93 1027.38 1026.78 1026.10 1025.30 1024.56 1023.66 1022.29 1022.68 1022.08 1021.65 1022.06 1022.30 1022.01 1022.02 1022.13 1021.64 1021.75 1022.18 1022.93 1023.21 1023.62 1023.97 1024.58 1025.27 1025.54 1025.87 1026.33 1026.79 1027.19 1027.85 1028.82 1029.33 1029.72 1029.97 1029.00 1028.45 1028.25 1027.83 1026.59 1027.22 1027.97 1029.02 1030.23
1029.04 1028.79 1028.46 1028.13 1027.70 1027.11 1026.47 1025.82 1025.03 1024.46 1024.24 1023.92 1023.31 1023.08 1022.85 1022.99 1022.49 1021.90 1021.35 1021.51 1022.07 1022.62 1023.21 1023.84 1024.15 1024.68 1025.64 1025.60 1025.81 1026.03 1026.38 1026.63 1026.88 1027.20 1027.72 1028.57 1029.47 1030.12 1029.61 1028.83 1027.81 1025.60 1025.15 1025.83 1026.97 1027.63 1028.24
1029.08 1028.85 1028.59 1028.28 1027.91 1027.44 1026.80 1026.25 1025.57 1024.95 1024.39 1023.97 1023.82 1023.85 1023.50 1023.30 1022.37 1021.98 1021.74 1022.08 1022.80 1023.30 1023.94 1024.52 1025.16 1025.88 1026.04 1026.30 1026.80 1026.99 1026.90 1026.69 1026.14 1026.39 1027.16 1027.92 1029.29 1030.25 1030.27 1029.55 1027.38 1025.40 1025.02 1025.44 1026.28 1026.63 1026.61
1029.03 1028.84 1028.64 1028.42 1028.09 1027.68 1027.09 1026.56 1026.02 1025.47 1024.73 1023.94 1024.16 1023.98 1023.82 1023.87 1023.12 1022.25 1022.00 1022.33 1023.33 1024.27 1024.88 1025.60 1026.21 1026.33 1026.64 1027.24 1027.97 1028.35 1027.56 1026.40 1026.07 1025.87 1026.39 1027.54 1028.61 1030.06 1030.33 1030.14 1028.06 1025.00 1024.70 1024.78 1025.47 1026.20 1025.61
1028.84 1028.79 1028.61 1028.47 1028.25 1027.87 1027.40 1026.79 1026.37 1025.91 1025.32 1025.01 1024.39 1024.14 1024.35 1024.41 1023.43 1022.78 1022.66 1023.05 1023.08 1023.88 1025.10 1025.85 1026.58 1027.03 1027.35 1028.13 1028.96 1029.27 1027.89 1026.14 1026.06 1025.79 1026.46 1027.51 1028.54 1029.23 1029.75 1029.50 1026.73 1024.25 1024.32 1024.56 1025.46 1025.56 1024.95
1028.58 1028.59 1028.56 1028.41 1028.32 1028.03 1027.56 1027.10 1026.56 1026.13 1025.78 1025.42 1024.69 1024.11 1024.60 1024.82 1024.10 1023.64 1023.43 1023.57 1023.61 1024.11 1025.34 1026.15 1026.87 1027.22 1028.13 1028.83 1029.16 1029.10 1028.33 1027.12 1026.31 1025.43 1025.27 1026.29 1027.30 1027.82 1028.22 1027.69 1025.24 1023.70 1024.13 1024.29 1024.05 1023.97 1024.07
1028.22 1028.28 1028.35 1028.33 1028.23 1028.09 1027.76 1027.28 1026.73 1026.26 1025.88 1025.45 1025.04 1024.32 1024.36 1025.24 1024.85 1024.42 1024.30 1024.30 1024.35 1024.71 1025.10 1025.61 1026.27 1026.55 1027.28 1028.39 1028.91 1028.98 1028.85 1027.66 1026.96 1026.13 1024.52 1024.95 1024.42 1024.96 1025.26 1023.92 1022.56 1022.30 1022.12 1022.24 1022.56 1023.04 1023.27
Wind_Speed
17 16 16 16 15 15 15 14 13 12 11 11 11 10 10 11 10 10 11 11 10 11 13 15 14 8 5 12 5 7 14 13 11 14 18 15 16 8 7 5 9 9 4 9 10 11 14
17 17 17 16 16 15 15 15 14 12 11 10 10 10 10 9 9 9 10 12 11 11 12 13 14 16 8 22 10 8 7 10 10 10 13 21 11 8 8 5 5 5 6 5 9 14 12
18 17 17 16 16 15 14 13 13 12 11 10 10 9 8 8 9 9 10 10 8 9 10 12 12 2 20 8 10 9 2 6 8 8 21 20 9 23 9 7 8 7 7 7 9 10 7
18 18 17 16 16 14 13 14 13 12 11 11 10 10 9 9 9 10 11 13 12 10 8 7 7 7 8 5 9 13 9 5 11 13 17 16 17 5 13 8 8 10 10 8 13 15 7
19 19 18 18 17 15 14 14 13 13 12 11 10 10 9 9 9 9 8 10 11 12 12 13 5 9 6 9 15 12 8 3 13 15 18 15 17 13 23 14 9 11 5 12 4 19 9
19 19 19 18 17 16 15 15 13 12 11 11 11 11 11 10 7 8 10 7 11 13 5 6 5 9 9 9 7 11 12 16 10 11 15 14 8 11 15 14 7 7 5 7 7 11 11
19 19 19 19 18 17 16 15 14 13 12 12 11 11 11 12 9 8 7 6 4 9 13 8 7 10 7 8 18 10 8 11 10 11 5 16 14 21 12 11 8 5 6 8 15 16 11
19 19 19 19 19 18 17 16 15 13 12 12 12 10 10 9 11 11 3 3 6 9 7 7 8 5 6 10 5 16 15 7 10 12 13 7 16 11 10 12 10 8 12 11 9 13 10
20 20 20 20 20 19 18 17 16 14 13 13 12 11 9 8 8 5 4 5 8 10 5 4 5 4 2 8 7 10 9 8 6 14 12 9 6 12 12 11 12 8 11 16 17 20 6
19 20 20 20 21 20 19 18 17 16 14 13 12 10 8 6 5 3 4 4 8 4 4 4 5 5 7 1 6 5 6 3 7 5 9 8 8 10 8 11 12 8 15 18 19 4 4
19 20 20 20 20 19 18 17 17 16 14 13 12 11 9 2 3 2 1 6 6 5 4 2 2 1 5 7 5 6 4 3 5 2 7 2 7 6 7 10 11 7 17 14 12 6 4
19 20 21 21 21 20 20 18 17 16 14 12 13 11 12 1 1 5 6 6 5 7 2 3 4 2 3 5 2 3 8 10 2 3 9 7 8 5 4 7 5 9 13 7 7 4 4
19 19 20 21 21 21 21 19 18 16 13 11 12 12 6 3 1 4 5 3 7 7 2 5 3 1 5 2 4 6 8 11 7 7 2 7 4 5 3 6 5 8 6 5 6 6 5
19 19 20 21 21 21 21 20 17 15 12 10 9 10 4 2 5 5 3 5 8 2 4 2 2 4 3 5 2 0 3 4 9 7 2 5 4 2 2 2 2 6 7 5 3 3 8
19 19 20 21 22 22 21 20 18 16 12 11 7 2 2 1 3 2 5 7 7 5 3 2 5 3 4 2 1 1 5 3 3 7 4 4 4 3 4 2 6 4 5 2 3 6 2
18 19 20 20 21 21 21 21 20 17 13 10 2 1 0 3 2 4 5 3 3 5 2 3 3 2 4 4 1 5 3 2 2 3 3 3 5 5 5 1 4 6 2 5 4 4 6
18 18 19 20 20 21 22 22 21 18 14 5 1 1 3 3 4 4 4 2 4 8 7 6 3 1 4 3 2 3 3 3 4 4 3 1 2 8 5 2 3 4 1 1 3 2 3
17 18 18 20 21 21 22 22 21 20 20 3 2 1 3 3 4 1 2 3 2 5 2 2 2 5 4 3 3 3 3 4 4 2 4 2 1 5 3 4 5 2 5 4 5 5 4
16 17 18 19 20 20 21 22 21 18 14 3 2 3 2 5 4 2 1 2 3 3 2 1 3 4 1 3 2 2 5 6 6 2 3 3 2 4 2 3 2 6 5 4 1 3 5
14 16 18 19 20 20 22 22 21 19 14 1 1 3 4 3 4 7 5 4 2 4 4 4 4 2 2 5 4 3 3 6 7 5 7 4 2 6 7 9 6 6 3 2 6 3 5
12 14 16 17 19 20 22 22 22 22 17 2 1 3 6 3 5 6 5 8 6 4 1 2 2 5 1 2 2 5 4 6 5 11 5 5 4 3 9 12 15 7 7 6 6 9 6
10 12 14 16 18 20 22 23 23 24 21 2 2 3 2 3 2 6 4 2 8 5 6 4 4 5 4 3 2 2 5 3 3 2 6 5 4 4 11 16 7 9 10 9 10 6 5
9 10 13 15 17 20 21 23 24 25 16 2 3 2 5 4 2 5 5 5 6 9 2 3 3 0 4 2 4 3 1 3 3 6 8 4 2 5 6 3 5 8 9 10 6 4 7
9 9 12 14 17 19 20 21 22 23 16 1 2 2 3 4 2 5 4 1 6 3 3 5 3 2 2 2 4 3 5 7 7 7 6 2 3 1 6 7 4 9 7 6 7 5 7
8 8 10 12 15 17 18 19 21 21 21 2 3 3 2 1 3 3 4 8 7 4 4 5 5 3 3 2 3 4 2 2 8 7 8 7 3 2 1 2 12 10 6 6 6 7 7
8 7 8 10 12 14 15 17 19 21 22 1 2 2 1 4 4 7 6 8 5 4 1 5 4 3 2 1 3 2 4 7 3 3 8 7 6 5 3 2 5 5 7 8 6 5 5
7 7 6 7 9 12 14 16 17 19 20 5 2 3 2 2 3 6 3 5 2 3 4 6 5 2 2 1 2 2 4 1 2 4 6 2 3 7 5 5 9 10 10 6 4 7 4
8 7 5 5 7 9 12 14 16 18 19 9 2 3 4 1 4 6 7 5 4 3 5 3 6 3 2 1 4 4 2 4 3 5 5 9 6 5 4 4 10 10 6 6 8 6 7
9 7 6 4 5 7 10 12 15 17 19 13 1 3 1 4 4 2 4 4 4 3 4 3 6 4 6 3 1 2 2 2 3 4 3 4 9 6 10 9 6 11 8 10 8 7 5
Wind_Direction
27 27 26 24 23 22 21 20 19 17 17 14 10 5 5 1 360 357 343 334 333 331 329 335 357 314 50 60 29 337 2 4 3 17 26 10 25 350 26 19 8 49 69 97 106 92 60
26 28 27 25 23 23 21 19 18 16 17 11 7 6 2 354 352 347 330 322 327 330 333 337 2 34 60 60 309 343 27 14 28 23 26 32 8 350 33 325 62 334 18 96 86 80 55
29 28 29 26 24 24 24 22 20 17 13 9 10 11 0 351 342 328 310 301 314 321 322 331 330 305 53 22 334 339 18 49 21 31 52 35 19 48 323 344 359 303 4 326 32 52 51
31 28 29 27 23 22 25 25 22 19 13 8 6 5 1 348 326 305 328 327 321 307 308 303 324 56 76 354 350 352 333 71 46 33 63 50 29 84 21 286 359 1 64 14 37 36 18
30 28 28 26 23 20 23 23 20 18 13 7 3 1 355 350 340 4 342 323 301 300 300 298 21 109 32 23 19 339 356 59 89 55 53 55 38 53 21 31 27 26 343 339 336 35 8
29 28 27 26 23 21 22 20 17 13 10 7 360 358 352 356 352 356 325 284 301 317 290 253 17 61 359 50 16 345 338 27 66 50 39 29 43 44 49 43 38 324 328 320 5 338 12
29 28 27 25 24 20 18 17 13 9 8 5 359 356 353 346 349 20 3 358 25 1 42 76 73 89 38 321 40 355 336 54 43 47 101 45 43 37 28 41 357 335 22 11 340 326 339
28 27 26 24 22 19 15 12 9 5 3 1 354 351 349 344 340 337 8 331 42 168 63 96 112 85 67 49 29 7 0 41 58 60 36 34 37 36 24 29 2 356 17 334 271 295 295
25 24 23 22 20 18 14 9 4 0 357 356 354 346 348 343 329 351 287 28 44 34 109 147 119 47 106 75 30 360 21 2 53 98 87 82 34 37 25 32 10 16 354 325 306 301 69
24 22 22 20 17 15 11 8 2 356 350 348 345 350 358 341 40 246 291 27 56 49 97 137 13 2 360 119 56 58 0 34 27 18 112 86 53 30 33 39 5 8 336 327 312 58 76
24 21 19 17 15 12 9 5 1 354 345 340 337 343 345 73 283 121 13 45 31 55 87 67 78 346 99 80 279 15 341 139 123 30 64 174 78 29 49 31 16 332 335 320 29 63 79
22 20 17 15 12 10 7 4 359 353 341 334 332 336 341 94 266 339 35 13 44 50 12 119 130 204 102 90 53 347 61 25 330 131 86 140 114 54 53 33 343 338 330 351 22 47 41
19 19 16 12 10 8 5 2 357 351 340 330 328 332 341 3 323 4 5 44 47 91 322 145 125 309 140 72 46 3 82 54 37 30 356 118 121 128 91 50 341 14 11 7 353 10 250
19 15 13 11 9 6 4 1 356 351 342 332 324 331 2 53 343 2 34 58 76 92 79 43 138 188 83 14 149 76 57 44 34 8 326 16 288 107 35 123 10 23 65 127 289 314 275
20 14 11 8 6 4 2 360 357 354 349 342 329 252 164 274 338 26 74 56 194 10 36 175 186 269 146 114 100 294 72 66 77 28 42 35 297 136 150 142 107 318 31 252 241 260 20
20 14 10 6 3 2 1 360 359 355 349 347 0 225 12 177 80 51 72 204 95 24 344 285 4 9 37 72 19 59 78 40 86 103 27 333 308 247 137 148 88 123 182 13 355 353 316
18 14 11 7 2 2 1 -0 360 354 343 333 13 86 261 132 73 46 135 85 100 41 9 17 16 332 99 50 145 51 95 98 62 10 285 2 62 294 351 112 154 2 357 100 167 169 187
16 12 10 7 3 1 0 1 1 357 342 124 277 87 250 96 63 331 82 101 52 127 311 63 19 31 43 55 326 105 93 90 74 334 349 47 179 272 298 116 135 179 254 132 112 290 211
12 10 9 8 3 359 0 1 360 0 3 340 249 153 294 88 118 330 189 84 55 166 139 218 104 37 5 47 24 102 96 130 130 17 99 324 313 326 206 345 298 236 241 144 133 119 234
5 6 8 6 3 360 359 0 358 355 352 112 335 39 339 34 179 139 163 168 111 1 61 359 76 350 174 215 174 177 163 176 171 125 132 96 263 180 206 224 234 280 253 173 148 162 236
360 1 3 3 2 0 358 359 358 352 347 124 89 245 179 263 311 168 183 158 129 167 314 234 234 233 298 321 336 202 170 135 176 142 151 146 252 270 271 289 288 242 236 246 216 222 203
354 359 1 3 3 1 359 358 360 355 340 81 96 59 345 208 302 116 50 247 165 118 151 214 228 194 151 229 320 309 43 354 219 199 178 187 262 280 280 271 218 260 251 241 234 237 247
351 358 2 3 4 5 1 357 1 3 350 2 321 315 100 284 280 105 212 215 194 118 87 44 203 346 196 81 26 44 31 291 255 167 200 187 225 338 269 282 267 293 243 225 207 181 163
351 357 3 6 5 5 3 357 359 6 17 275 335 342 83 270 218 221 141 103 123 112 108 108 15 43 113 330 314 231 240 235 232 242 182 212 8 271 282 330 4 243 162 153 178 217 223
339 351 358 5 5 2 3 358 359 1 3 27 353 35 37 273 210 111 144 106 85 59 71 101 52 86 33 318 350 354 317 295 227 207 198 175 151 281 256 251 266 298 123 173 163 279 240
319 334 351 357 2 358 0 360 359 359 1 323 59 273 348 107 292 312 152 133 134 165 109 104 89 59 20 132 84 117 241 223 202 179 186 168 162 132 346 312 266 244 140 109 94 295 139
296 313 338 349 356 357 356 359 358 359 360 347 349 23 71 115 346 19 93 179 182 156 133 131 158 126 53 102 110 194 268 145 258 202 178 158 219 198 216 249 273 257 138 133 76 236 122
274 289 306 334 344 352 356 354 355 358 360 2 249 18 108 151 338 8 17 25 8 78 141 193 57 329 67 76 137 230 195 260 345 246 179 171 166 204 180 217 277 126 116 168 205 179 188
254 264 273 292 325 343 348 351 353 353 356 352 32 347 54 109 225 44 97 59 53 35 134 173 180 155 196 107 301 58 329 328 199 265 207 241 184 187 176 218 216 194 188 202 171 171 189